Location: Unspecified
(52.1384°N, 8.6525°W)
Time: 11:47:59
(UTC+00:00)

N. Korean satellite - Pass Details

Date: 31 October 2020
Orbit: 453 x 503 km, 97.2° (Epoch: 03 December)

Event Time Altitude Azimuth Distance (km) Brightness Sun altitude
Rises 05:11:27 0° 28° (NNE) 2,482 10.6 -21.4°
Reaches altitude 10° 05:14:08 10° 51° (NE) 1,600 9.9 -21.0°
Maximum altitude 05:16:17 16° 90° (E) 1,285 9.7 -20.7°
Drops below altitude 10° 05:18:26 10° 130° (SE) 1,592 9.8 -20.4°
Sets 05:21:06 0° 153° (SSE) 2,463 10.5 -20.0°
